Flag for Belgium Weather past 2 weeks in Charleroi, Belgium

Now
57 °F

Sprinkles. Passing clouds.


Feels Like: 55 °F
Forecast: 52 / 63 °F
Wind: 12 mph from Southwest

Location: Charleroi / Gosselies

Current Time: Aug 30, 2014 at 8:45:35 AM

Latest Report: Aug 30, 2014 at 7:50 AM


Visibility: N/A

Pressure: 30.07 "Hg

Humidity: 88%

Dew point: 54 °F

Location of CharleroiLocation

Historic Weather in Charleroi — Graph

°F

Charleroi temperature yesterday

Maximum temperature yesterday: 68 °F (at 5:20 PM)
Minimum temperature yesterday: 57 °F (at 1:20 AM)
Average temperature yesterday: 61 °F

Past Weeks' High & Low Weather Summary

 TemperatureHumidityPressure
High70 °F (Aug 28, 3:50 PM)100% (Aug 26, 10:50 AM)30.18 "Hg (Aug 26, 10:50 AM)
Low46 °F (Aug 20, 4:20 AM)43% (Aug 18, 2:20 PM)29.62 "Hg (Aug 26, 1:20 AM)
Average57 °F80%29.96 "Hg
* Reported Aug 15 7:50 AM — Aug 30 7:20 AM, Charleroi, Weather by CustomWeather, © 2014

Note: Actual official high and low records may vary slightly from our data, if they occured in-between our weather recording intervals... More about our weather records

Advertising

Charleroi weather history for previous 24 hours

 ConditionsComfort  
Time TempWeatherWind HumidityBarometerVisibility
7:20 AM
Aug 30
57 °FSprinkles. Passing clouds.12 mph88%30.04 "HgN/A
6:50 AM57 °FPassing clouds.12 mph88%30.04 "HgN/A
6:20 AM57 °FPassing clouds.10 mph88%30.04 "HgN/A
5:50 AM57 °FClear.10 mph88%30.04 "Hg10 mi
5:20 AM59 °FPassing clouds.12 mph77%30.04 "HgN/A
4:50 AM59 °FPassing clouds.10 mph82%30.07 "HgN/A
4:20 AM59 °FPassing clouds.12 mph77%30.07 "HgN/A
3:50 AM59 °FPassing clouds.10 mph82%30.07 "HgN/A
3:20 AM59 °FPassing clouds.12 mph82%30.07 "HgN/A
2:50 AM59 °FPassing clouds.10 mph82%30.07 "HgN/A
2:20 AM59 °FPassing clouds.10 mph82%30.07 "HgN/A
1:50 AM59 °FPassing clouds.9 mph82%30.07 "HgN/A
1:20 AM57 °FPassing clouds.8 mph88%30.07 "HgN/A
12:50 AM57 °FPassing clouds.9 mph82%30.07 "HgN/A
12:20 AM59 °FPassing clouds.10 mph77%30.07 "HgN/A
11:50 PM
Aug 29
59 °FPassing clouds.7 mph77%30.07 "HgN/A
11:20 PM59 °FPassing clouds.7 mph77%30.07 "HgN/A
10:50 PM61 °FPassing clouds.9 mph72%30.07 "HgN/A
8:50 PM63 °FPassing clouds.6 mph68%30.04 "HgN/A
8:20 PM64 °FScattered clouds.6 mph64%30.04 "HgN/A
7:50 PM64 °FScattered clouds.8 mph64%30.04 "HgN/A
7:20 PM66 °FPassing clouds.10 mph60%30.04 "HgN/A
6:50 PM66 °FPassing clouds.12 mph60%30.04 "HgN/A
6:20 PM66 °FScattered clouds.13 mph56%30.04 "HgN/A
5:50 PM68 °FScattered clouds.12 mph56%30.04 "HgN/A
5:20 PM68 °FScattered clouds.14 mph60%30.04 "HgN/A
4:50 PM66 °FScattered clouds.14 mph64%30.04 "HgN/A
4:20 PM66 °FScattered clouds.14 mph64%30.04 "HgN/A
3:50 PM66 °FPassing clouds.13 mph64%30.04 "HgN/A
3:20 PM66 °FPassing clouds.13 mph64%30.04 "HgN/A
2:50 PM64 °FScattered clouds.12 mph64%30.04 "HgN/A
2:20 PM64 °FScattered clouds.12 mph73%30.04 "HgN/A
1:50 PM61 °FScattered clouds.9 mph77%30.04 "HgN/A
1:20 PM61 °FDrizzle. Broken clouds.15 mph77%30.04 "Hg4 mi
12:50 PM63 °FPartly sunny.13 mph77%30.04 "HgN/A
12:20 PM61 °FPartly sunny.9 mph83%30.04 "HgN/A
11:50 AM59 °FPartly sunny.9 mph88%30.04 "HgN/A
11:20 AM59 °FLight rain. Partly sunny.10 mph88%30.07 "Hg5 mi
10:50 AM59 °FLight rain. Partly sunny.8 mph88%30.04 "Hg5 mi
10:20 AM59 °FLight rain. Partly sunny.9 mph82%30.04 "HgN/A
9:50 AM57 °FLight rain. Broken clouds.6 mph94%30.04 "Hg4 mi
9:20 AM57 °FLight rain. Broken clouds.9 mph88%30.04 "Hg4 mi
8:50 AM59 °FLight rain. Partly sunny.7 mph88%30.04 "HgN/A
8:20 AM59 °FPartly sunny.7 mph88%30.04 "HgN/A
Weather by CustomWeather, © 2014

See weather overviewHow to use our weather pages